STARLINK-36345, 68243

Orbit data source: Space-Track

STARLINK-36345, 68243 is a payload satellite owned by SpaceX/Seattle (US) in LEO that was launched on Tue, 17 Mar 2026 UTC via an FALCON 9 launch vehicle from the Air Force Eastern Test Range (AFETR). Payload-class satellites include a variety of spacecraft equipped with specific instruments for various scientific and technological missions. These include communications satellites like Starlink; space stations such as the ISS; scientific satellites like the Hubble; Earth observation satellites from companies like Planet Labs, Umbra, and HawkEye 360; GPS; miniature CubeSats for education and research; and military/defense satellites.

Loading next visibility...
Identifier
68243, 2026-054M
Orbit
LEO
Country
Flag of USUS
Related business
Manufacturer
SpaceX/Seattle
Mission
Operational spacecraft
Bus & Motor
STARLINK V2MO, Unknown motor
Mass
575 kg wet, ~530 kg dry
Launch date (UTC)
2026-03-17 (2 months ago)
Launch vehicle
FALCON 9
Launch site
Air Force Eastern Test Range (AFETR)
Object type
Payload
Rocket body
Debris
Shape & HBR
Unknown shape, 17.7 m
Radar Cross Section
RCS unknown

Expand to show TLE details & history
Last TLE update: 9 hours ago

TLE from 9 hours ago
0 STARLINK-36345
1 68243U 26054M   26145.40581609  .00038144  00000-0  11340-2 0  9992
2 68243  53.1603 293.6308 0001573  83.2150 276.9032 15.34408687 10836
Epoch: 2026-05-25T09:44Z
TLE epoch observation values (Epoch: 2026-05-25T09:44:22.510Z)
Latitude
0.00003°
Longitude
-95.45704°
Altitude
463.45 km
Speed
7.636 km/s
True Right ascension
19h 34m 31s
True Declination
0° 00' 00"
Sunlit
Object was in full shadow at epoch
Visualization orbit readout
Latitude
Unknown
Longitude
Unknown
Altitude
Unknown
Speed
Unknown
Apparent Right ascension
Unknown
Apparent Declination
Unknown
Sunlit
N/A
Visualization observer readout
Local Sidereal Time
03:53:21
Azimuth
Unknown
Elevation
Unknown
Doppler factor
Unknown
Orbital elements
Apogee altitude
464.01 km
Perigee altitude
461.858 km
Semi-major axis
6,841.071 km
Eccentricity
0.00016
Inclination
53.1603°
RAAN
293.6308°
Arg. of periapsis
83.215°
True anomaly
276.8853°
Mean anomaly
276.9032°
Eccentric anomaly
276.89425°
Mean motion
3.83581 °/min
Orbital period
93.85 mins
BSTAR
0.001134
Loading maneuver chart data...
Computing Atmospheric mass density...
Loading historical data...
Loading historical data...
Loading historical data...
Loading historical data...
Loading historical data...
Loading historical data...
Loading historical data...

Documentation

Showing up to 5 results
|